sat.trackr.live / text

‹ back to catalog

STARLINK-35367

NORAD 65883 · 2025-224B

PAYLOAD ACTIVE UNKNOWN

§ Identity

Operator
Country
US
Launch date
2025-10-07
Launch site
AFETR
Launch vehicle
Mass (kg)
RCS (m²)

Purposes: comms

External: N2YO · Heavens-Above · Gunter

§ Orbital elements

Epoch: 2026-05-24T19:33:33.519456Z

Period
93.85 min
Inclination
53.1589°
Eccentricity
0.0000869
Mean motion
15.34401581 rev/d
Perigee alt
462.1 km
Apogee alt
463.3 km
Semi-major
6,840.8 km
B*
7.0820e-4
RAAN
16.7515°
Arg perigee
22.8288°
Mean anomaly
337.2753°
Rev number
3,649

§ Raw data

STARLINK-353671 65883U 25224B   26144.81497129  .00023628  00000+0  70820-3 0  99932 65883  53.1589  16.7515 0000869  22.8288 337.2753 15.34401581 36495

JSON: /api/v1/satellites/65883 · /tle

For live sub-satellite position, see the globe view (requires WebGL).

§ Visibility from observer

Set your observer location to see the next 7 days of passes ≥ 10°. The values pass through the URL so the page stays shareable.

No JS? Fill the form by hand. The geolocation button needs JavaScript.